Location: Karcze
(52.0945°N, 22.4786°E)
Time: 11:56:59
(UTC+00:00)

Meteor 1-11 Rocket - Pass Details

Date: 14 July 2020
Orbit: 831 x 915 km, 81.2° (Epoch: 07 August)

Event Time Altitude Azimuth Distance (km) Brightness Sun altitude
Exits shadow 00:21:46 10° 167° (SSE) 2,442 5.6 -12.7°
Reaches altitude 10° 00:21:47 10° 167° (SSE) 2,441 5.6 -12.7°
Maximum altitude 00:27:03 48° 94° (E) 1,078 4.4 -12.4°
Drops below altitude 10° 00:32:21 10° 22° (NNE) 2,457 7.6 -12.0°
Sets 00:34:50 0° 17° (NNE) 3,400 8.7 -11.8°
